This demonstration page uses our WeatherBlox Daily Observations layout. Learn more.

Left ArrowRight Arrow

41.12389, -100.76542

Hourly Observations for July 8, 2016

Temp ( °F °C ) Dew Point ( °F °C ) Humidity (%) Winds ( mph kmh ) Pressure ( in mb ) Visibility ( mi km ) Precip ( " mm )
12:53 am 00:53 Clear 60 15.6 58 14.4 93 93 E 3 6 29.95 1014 10 16 0.00 0.00
1:53 am 01:53 undefined 60 15.6 57 13.9 90 90 ENE 3 6 29.93 1013 10 16 0.00 0.00
2:53 am 02:53 Clear 59 15 57 13.9 93 93 ENE 3 6 29.93 1014 10 16 0.00 0.00
3:53 am 03:53 undefined 59 15 57 13.9 93 93 Calm 29.96 1014 10 16 0.00 0.00
4:53 am 04:53 Clear 60 15.6 57 13.9 90 90 N 3 6 29.96 1014 10 16 0.00 0.00
5:53 am 05:53 Cloudy 60 15.6 58 14.4 93 93 Calm 29.98 1015 10 16 0.00 0.00
6:20 am 06:20 Mostly Cloudy with Nearby Thunderstorms 61 16.1 59 15 93 93 NNW 12 19 30.03 1017 10 16 0.00 0.00
6:35 am 06:35 Mostly Cloudy with Thunderstorms 62 16.7 60 15.6 93 93 Calm 30.03 1017 10 16 0.00 0.03
6:53 am 06:53 Cloudy with Thunderstorms 63 17.2 60 15.6 90 90 SE 5 7 30.02 1017 8 13 0.01 0.25
7:07 am 07:07 Cloudy with Nearby Thunderstorms 63 17.2 60 15.6 90 90 S 15 24 29.97 1015 6 10 0.00 0.03
7:28 am 07:28 Cloudy with Light Rain 63 17.2 59 15 87 87 NNE 10 17 29.97 1015 9 14 0.03 0.76
7:44 am 07:44 Cloudy with Thunderstorms 64 17.8 60 15.6 87 87 NNE 5 7 29.97 1015 6 10 0.05 1.27
7:53 am 07:53 Cloudy with Light Rain 64 17.8 61 16.1 90 90 SSE 6 9 29.98 1015 10 16 0.06 1.52
8:04 am 08:04 Mostly Cloudy with Nearby Thunderstorms 64 18 61 16 88 88 ENE 3 6 29.94 1014 10 16 0.00 0.00
8:19 am 08:19 Partly Cloudy 66 19 64 18 94 94 SSE 8 13 29.94 1014 10 16 0.00 0.00
8:31 am 08:31 Mostly Cloudy with Nearby Thunderstorms 67 19.4 65 18.3 93 93 N 6 9 29.97 1015 10 16 0.00 0.03
8:46 am 08:46 Cloudy 68 20 64 17.8 87 87 NE 8 13 29.97 1015 10 16 0.00 0.03
8:53 am 08:53 Cloudy 67 19.4 64 17.8 91 91 NE 6 9 30.00 1016 10 16 0.00 0.03
9:53 am 09:53 Sunny 71 21.7 65 18.3 81 81 ESE 15 24 30.00 1016 10 16 0.00 0.00
10:53 am 10:53 Sunny 73 22.8 65 18.3 76 76 SE 7 11 29.99 1016 10 16 0.00 0.00
11:53 am 11:53 Sunny 80 26.7 69 20.6 69 69 S 14 22 29.99 1016 10 16 0.00 0.00
12:53 pm 12:53 Mostly Sunny 82 27.8 70 21.1 67 67 S 8 13 29.98 1015 10 16 0.00 0.00
1:53 pm 13:53 Mostly Cloudy 82 27.8 70 21.1 67 67 VRB 5 7 29.98 1015 10 16 0.00 0.00
2:53 pm 14:53 Mostly Sunny 84 28.9 70 21.1 63 63 SE 9 15 29.95 1014 10 16 0.00 0.03
3:53 pm 15:53 Sunny 85 29.4 70 21.1 61 61 SE 9 15 29.93 1014 10 16 0.00 0.00
4:53 pm 16:53 Sunny 87 30.6 68 20 53 53 SSE 14 22 29.90 1013 10 16 0.00 0.00
5:53 pm 17:53 Sunny 86 30 69 20.6 57 57 SSE 10 17 29.89 1012 10 16 0.00 0.00
6:53 pm 18:53 Sunny 83 28.3 68 20 61 61 SSE 9 15 29.89 1012 10 16 0.00 0.00
7:53 pm 19:53 Sunny 80 26.7 69 20.6 69 69 SE 9 15 29.90 1012 10 16 0.00 0.00
8:53 pm 20:53 Sunny 77 25 69 20.6 77 77 SE 7 11 29.91 1013 10 16 0.00 0.00
9:53 pm 21:53 Clear 73 22.8 70 21.1 90 90 E 7 11 29.92 1013 10 16 0.00 0.00
10:53 pm 22:53 Clear 72 22.2 69 20.6 91 91 E 8 13 29.94 1014 10 16 0.00 0.00
11:53 pm 23:53 Clear 71 21.7 69 20.6 94 94 E 9 15 29.92 1013 10 16 0.00 0.00

Powered by AerisWeather